Regional Weather Roundup
Issued by NWS Portland, ME

Home | Current Version | Previous Version | Text Only | Print | Product List | Glossary On
Versions: 1 2 3 4 5 6 7 8 9 10 11 12 13 14 15 16 17 18 19 20 21 22 23 24 25 26 27 28 29 30 31 32 33 34 35 36 37 38 39 40 41 42 43 44 45 46 47 48 49 50
000
ASUS41 KGYX 260210
RWRGYX
WEATHER ROUNDUP FOR MAINE AND NEW HAMPSHIRE
NATIONAL WEATHER SERVICE GRAY ME
900 PM EST THU DEC 25 2014

MEZ002-005-006-010-012-015-018-020-021-024-026-027-029-260300-
MAINE

CITY           SKY/WX    TMP DP  RH WIND       PRES   REMARKS
PORTLAND       CLEAR     45  29  53 W16       29.79R
SANFORD        CLEAR     43  27  52 W16G28    29.81R
BAR HARBOR     PTCLDY    45  32  61 W8        29.67R
WISCASSET      CLEAR     36  31  82 W5        29.76R
ROCKLAND       CLEAR     43  30  61 W9        29.71R
FRYEBURG       PTCLDY    44  24  45 W14G31    29.77R
LEWISTONAUBURN CLEAR     43  25  49 W8        29.75R
AUGUSTA        CLEAR     43  25  49 W17G23    29.72R
WATERVILLE     PTCLDY    43  25  49 W14G20    29.68R
BANGOR         PTCLDY    44  27  51 W10G20    29.65R
GREENVILLE       N/A     36  27  69 W12G29    29.54R
MILLINOCKET    NOT AVBL
HOULTON        CLOUDY    41  26  55 W26G38    29.48R
PRESQUE ISLE   CLOUDY    41  25  52 W17G36    29.44R
FRENCHVILLE    CLOUDY    36  25  64 W24G47    29.35R
CARIBOU        CLOUDY    40  26  57 W21G32    29.41R
$$

NHZ002-005-008-009-011-012-014-260300-
NEW HAMPSHIRE

CITY           SKY/WX    TMP DP  RH WIND       PRES   REMARKS
PORTSMOUTH     CLEAR     44  29  55 W12       29.84R
ROCHESTER      CLEAR     43  28  55 W10G21    29.82R
NASHUA         PTCLDY    45  28  51 W10       29.89R
MANCHESTER     PTCLDY    44  28  53 W16G24    29.87R
CONCORD        CLEAR     42  27  55 W13G24    29.85R
PLYMOUTH       FAIR      42  32  68 W14G29    29.82R
BERLIN         CLOUDY    40  25  55 VRB7G28   29.75R
WHITEFIELD     CLOUDY    40  26  57 W12G18    29.80R
JAFFREY        PTCLDY    40  26  57 W8        29.88R
KEENE          PTCLDY    43  27  52 W9        29.91R
LEBANON        CLOUDY    42  26  53 W9G29     29.87R
MT WASHINGTON  FOG       16  16 100 NW81G100    N/A  VSB 1/16WCI -13
$$

VTZ005-007-008-260300-
VERMONT

CITY           SKY/WX    TMP DP  RH WIND       PRES   REMARKS
ST JOHNSBURY     N/A     42  26  53 MISG      29.81R
MONTPELIER     MOCLDY    39  25  57 W13G31    29.87R
BURLINGTON     PTCLDY    43  25  49 W26G37    29.87R
$$

MAZ007-012-024-CTZ003-RIZ002-NYZ038-NYZ072-260300-
SOUTHERN NEW ENGLAND AND NY

CITY           SKY/WX    TMP DP  RH WIND       PRES   REMARKS
BOSTON         CLEAR     46  30  53 W13G24    29.90R
WORCESTER      CLEAR     41  28  60 W13       29.89R
NANTUCKET      CLEAR     46  36  68 W14       29.94R
PROVIDENCE     CLEAR     45  28  51 W5        29.95R
HARTFORD       MOCLDY    46  28  49 W16G23    29.96R
ALBANY         CLOUDY    43  29  57 W22G29    30.03R
NEW YORK CITY  PTCLDY    47  29  49 W13G21    30.05R
$$

ANZ081-ANZ082-ANZ150-NHZ014-MEZ023>029-260300-
COASTAL MARINE OBSERVATIONS

STATION/POSITION TIME  TEMP    WIND        PRES    WAVE
                       AIR SEA DIR/SP/G            HT/PER
                 (UTC) (F)     (DEG/KT/KT) (MB)    (FT/S)
MOUNT DESERT ROC 0200   48                 1005.0R
MATINICUS ROCK   0200          260/ 32/ 35 1005.9R
PORTLAND WX BUOY 0150   45 42  260/ 21/ 27 1008.2R   4/ 7
WELLS            0100   45 40  290/  6/ 12 1007.9R
ISLE OF SHOALS   0200   45     260/ 21/ 24 1009.9R
JEFFREYS LEDGE   0121      49                N/A     5/ 5
CASHES LEDGE BUO 0150   48 48  260/ 27/ 31 1007.5R  10/ 6
$$

.............KEY..............
   WCI - WIND CHILL
   TC  - TEMPERATURE IN CELSIUS
   VSB - VISIBILITY IN MILES
   HX  - HEAT INDEX
   FAIR- INDICATES FEW OR NO CLOUDS BELOW 12,000 FT, WITH NO
         SIGNIFICANT WEATHER AND/OR OBSTRUCTIONS TO VISIBILITY.




USA.gov is the U.S. government's official web portal to all federal, state and local government web resources and services.